Regional Weather Roundup
Issued by NWS

Home | Current Version | Previous Version | Text Only | Print | Product List | Glossary Off
Versions: 1 2 3 4 5 6 7 8 9 10 11 12 13 14 15 16 17 18 19 20 21 22 23 24 25 26 27 28 29 30 31 32 33 34 35 36 37 38 39 40 41 42 43 44 45 46 47 48 49 50

000
ASUS43 KIND 171159
RWRIN

WEATHER ROUNDUP FOR INDIANA
NATIONAL WEATHER SERVICE INDIANAPOLIS IN
700 AM EST SUN DEC 17 2017

NOTE: "FAIR" INDICATES FEW OR NO CLOUDS BELOW 12,000 FEET WITH NO
SIGNIFICANT WEATHER AND/OR OBSTRUCTIONS TO VISIBILITY.

* - STATION DOES NOT REPORT WEATHER SUCH AS PRECIPITATION OR FOG.

+ - STATION NOT QUALITY CONTROLLED BY THE NATIONAL WEATHER SERVICE.
    USE DATA WITH CAUTION...ESPECIALLY DEWPOINT AND RELATIVE
    HUMIDITY OBSERVATIONS.

INZ001>003-010>013-019-020-171300-
NORTHWEST INDIANA

CITY           SKY/WX    TMP DP  RH WIND       PRES   REMARKS
GARY /AIRPORT/ PTCLDY    30  27  86 CALM      30.07F
KNOX *+        CLOUDY    32  28  86 SE5       30.08R WCI  27
MONTICELLO +   CLOUDY    33  28  83 S5        30.09R WCI  29
6HR MIN TEMP:  32; 6HR MAX TEMP:  37;


$$

LMZ046-743>745-171300-
SOUTHERN LAKE MICHIGAN

STATION/POSITION TIME  TEMP    WIND        PRES    WAVE
                       AIR SEA DIR/SP/G            HT
                 (UTC) (F)     (DEG/KT/KT) (MB)    (FT)
BURNS HARBOR     1140   35     170/  1/  3 1018.6S
MICHIGAN CITY    1130   32     130/  6/  7   N/A

$$

INZ004-005-014>016-021>024-171300-
NORTH CENTRAL INDIANA

CITY           SKY/WX    TMP DP  RH WIND       PRES   REMARKS
GOSHEN         CLOUDY    28  25  88 E7        30.10R FOG     WCI  21
6HR MIN TEMP:  27; 6HR MAX TEMP:  32;

PERU/GRISSOM   CLOUDY    33  30  89 S6        30.09R WCI  27
6HR MIN TEMP:  32; 6HR MAX TEMP:  34;

SOUTH BEND     CLOUDY    27  26  96 E7        30.09S WCI  19
6HR MIN TEMP:  25; 6HR MAX TEMP:  29;

WARSAW +       CLOUDY    30  28  93 SE3       30.10R

$$

INZ006>009-017-018-025>027-171300-
NORTHEAST INDIANA

CITY           SKY/WX    TMP DP  RH WIND       PRES   REMARKS
AUBURN +       FOG       28  28 100 E6        30.13S VSB 3/4 WCI  22
FORT WAYNE     CLOUDY    26  24  92 NE7       30.12S WCI  18
6HR MIN TEMP:  26; 6HR MAX TEMP:  28;


$$

INZ028-029-035-036-043>045-051>053-171300-
WEST CENTRAL INDIANA

CITY           SKY/WX    TMP DP  RH WIND       PRES   REMARKS
GREENCASTLE +  CLOUDY    39  30  70 CALM      30.12R
LAFAYETTE      CLOUDY    37  29  72 S3        30.10R
6HR MIN TEMP:  36; 6HR MAX TEMP:  38;

TERRE HAUTE    CLOUDY    40  30  67 S7        30.13R WCI  35
6HR MIN TEMP:  37; 6HR MAX TEMP:  40;


$$

INZ030>032-037>040-046>048-054>057-064-065-171300-
CENTRAL INDIANA

CITY           SKY/WX    TMP DP  RH WIND       PRES   REMARKS
COLUMBUS       CLEAR     36  28  75 S8        30.15  WCI  29
INDIANAPOLIS   CLOUDY    39  29  67 S5        30.12R WCI  36
6HR MIN TEMP:  36; 6HR MAX TEMP:  39;

-EAGLE CREEK   CLOUDY    39  28  64 S3        30.12R
6HR MIN TEMP:  38; 6HR MAX TEMP:  41;

KOKOMO +       MOCLDY    33  28  81 S7        30.11R WCI  27
6HR MIN TEMP:  32; 6HR MAX TEMP:  35;

MT COMFORT *+  CLOUDY    34  32  93 S7        30.13R WCI  28
SHELBYVILLE    CLOUDY    39  28  64 S7        30.13R WCI  34
6HR MIN TEMP:  33; 6HR MAX TEMP:  39;


$$

INZ033-034-041-042-049-050-058-059-171300-
EAST CENTRAL INDIANA

CITY           SKY/WX    TMP DP  RH WIND       PRES   REMARKS
MUNCIE         CLOUDY    38  28  67 S6        30.12R WCI  33
6HR MIN TEMP:  37; 6HR MAX TEMP:  39;

RICHMOND +     PTCLDY    32  30  93 S8        30.13S WCI  25

$$

INZ060-061-067>069-081>083-085>088-171300-
SOUTHWEST INDIANA

CITY           SKY/WX    TMP DP  RH WIND       PRES   REMARKS
EVANSVILLE     CLOUDY    43  32  65 S9        30.18R
6HR MIN TEMP:  40; 6HR MAX TEMP:  43;

HUNTINGBURG +  CLOUDY    41  31  67 S8        30.19R
6HR MIN TEMP:  40; 6HR MAX TEMP:  42;


$$

INZ062-063-066-070>080-084-089>092-171300-
SOUTH CENTRAL AND SOUTHEAST INDIANA

CITY           SKY/WX    TMP DP  RH WIND       PRES   REMARKS
BLOOMINGTON    CLOUDY    42  29  59 SW10      30.13R
6HR MIN TEMP:  41; 6HR MAX TEMP:  43;

MADISON *+     CLOUDY    37  30  75 CALM      30.18R
SEYMOUR +      CLOUDY    39  30  70 CALM      30.15

$$





USA.gov is the U.S. government's official web portal to all federal, state and local government web resources and services.